Вернуться в каталог

STARLINK-5072

АктивенСвязьVLEO
NORAD 55758·PAYLOAD·🇺🇸 United States

Запущен Mar 3, 2023 с Vandenberg Space Force Base

Loading…

Ближайшие Пролёты (ближайшие 24 часа)

TLE

СвежийSource: CelesTrak SupGP

Эпоха: Sep 14, 2026, 21:54 UTC

1 55758C 23028T   26257.91298611 -.00013130  00000+0 -11005-2 0  2579
2 55758  70.0003 127.2483 0002935 269.5638 201.7950 14.98330867    11

Отслеживайте STARLINK-5072 в реальном времени с AllMySat

Download on the App Store